Butler, GA

7:05 PM EST on December 15, 2019 (GMT -0500)
Butler

Weather History for K6A1 - October, 2019

Change the Weather History Date:

Monday, October 14, 2019

  Actual Average (KMCN) Record (KMCN)
Temperature  
Mean Temperature 70 °F -  
Max Temperature 79 °F 80 °F 90 °F (1970)
Min Temperature 62 °F 52 °F 32 °F (1988)
Cooling Degree Days 6    
Growing Degree Days 20 (Base 50)    
Moisture  
Dew Point 62 °F    
Average Humidity 79    
Maximum Humidity 99    
Minimum Humidity 50    
Precipitation  
Precipitation 0.00 in - - ()
Sea Level Pressure  
Sea Level Pressure 30.10 in    
Wind  
Wind Speed 3 mph ()    
Max Wind Speed 8 mph    
Max Gust Speed -    
Visibility 9.0 miles    
Events Rain    
Averages and records for this station are not official NWS values.
T = Trace of Precipitation, MM = Missing Value Source: Averaged Metar Reports

Daily Weather History Graph

Daily Weather History Graph

Search for Another Location

Airport or City:

Astronomy

Oct. 14, 2019 Rise Set
Actual Time 7:40 AM EDT 7:05 PM EDT
Civil Twilight 7:15 AM EDT 7:30 PM EDT
Nautical Twilight 6:46 AM EDT 7:58 PM EDT
Astronomical Twilight 6:18 AM EDT 8:27 PM EDT
Moon 7:55 PM EDT (10/14) 8:11 AM EDT (10/14)
Length of Visible Light 12h 15m
Length of Day
11h 25m
Waxing Gibbous, 99% of the Moon is Illuminated
Oct 14
Waxing Gibbous
Oct 21
Last Quarter
Oct 27
New
Nov 4
First Quarter
Nov 12
Full

Hourly Weather History & Observations

Time (EDT) Temp. Dew Point Humidity Pressure Visibility Wind Dir Wind Speed Gust Speed Precip Events Conditions
12:15 AM 64.6 °F 62.8 °F 94% 30.10 in 7.0 mi SW 6.9 mph - N/A Rain Rain
12:35 AM 64.4 °F 63.0 °F 95% 30.08 in 5.0 mi West 5.8 mph - N/A Rain Heavy Rain
12:55 AM 64.4 °F 63.1 °F 96% 30.06 in 10.0 mi South 6.9 mph - N/A Rain Light Rain
1:15 AM 64.6 °F 63.7 °F 97% 30.06 in 10.0 mi South 5.8 mph - N/A   Unknown
1:35 AM 64.6 °F 63.7 °F 97% 30.09 in 7.0 mi North 8.1 mph - N/A Rain Heavy Rain
1:55 AM 64.4 °F 63.5 °F 97% 30.08 in 10.0 mi North 3.5 mph - N/A   Unknown
2:15 AM 64.4 °F 63.5 °F 97% 30.06 in 10.0 mi Calm Calm - N/A   Unknown
2:35 AM 64.2 °F 63.3 °F 97% 30.05 in 10.0 mi South 4.6 mph - N/A   Unknown
2:55 AM 64.0 °F 63.5 °F 98% 30.08 in 10.0 mi Calm Calm - N/A   Unknown
3:15 AM 63.9 °F 63.3 °F 98% 30.05 in 10.0 mi Calm Calm - N/A   Unknown
3:35 AM 63.5 °F 62.8 °F 97% 30.07 in 7.0 mi Calm Calm - N/A   Unknown
4:15 AM 63.0 °F 62.6 °F 99% 30.07 in 7.0 mi Calm Calm - N/A   Unknown
4:35 AM 62.8 °F 62.4 °F 99% 30.07 in 7.0 mi West 3.5 mph - N/A   Unknown
4:55 AM 63.3 °F 62.8 °F 98% 30.07 in 5.0 mi Calm Calm - N/A   Mist
5:15 AM 63.5 °F 62.8 °F 97% 30.07 in 7.0 mi NNW 3.5 mph - N/A   Unknown
5:35 AM 63.5 °F 63.0 °F 98% 30.08 in 10.0 mi Calm Calm - N/A   Unknown
5:55 AM 63.7 °F 63.1 °F 98% 30.08 in 7.0 mi Calm Calm - N/A   Unknown
6:15 AM 63.7 °F 63.1 °F 98% 30.09 in 7.0 mi Calm Calm - N/A   Unknown
6:35 AM 63.7 °F 63.3 °F 99% 30.10 in 5.0 mi Calm Calm - N/A   Mist
6:55 AM 63.7 °F 63.1 °F 98% 30.10 in 7.0 mi Calm Calm - N/A   Unknown
7:15 AM 63.9 °F 63.5 °F 99% 30.10 in 7.0 mi Calm Calm - N/A   Unknown
7:35 AM 63.9 °F 63.5 °F 99% 30.10 in 4.0 mi Calm Calm - N/A   Mist
7:55 AM 63.9 °F 63.3 °F 98% 30.10 in 5.0 mi Calm Calm - N/A   Mist
8:15 AM 64.2 °F 63.7 °F 98% 30.11 in 3.0 mi Calm Calm - N/A   Mist
8:35 AM 64.4 °F 63.9 °F 98% 30.11 in 4.0 mi Calm Calm - N/A   Mist
8:55 AM 64.6 °F 64.0 °F 98% 30.12 in 7.0 mi Calm Calm - N/A   Unknown
9:15 AM 64.8 °F 64.4 °F 99% 30.13 in 10.0 mi NNW 3.5 mph - N/A   Unknown
9:35 AM 65.3 °F 64.4 °F 97% 30.14 in 10.0 mi NW 3.5 mph - N/A   Unknown
10:15 AM 66.4 °F 63.5 °F 90% 30.15 in 10.0 mi NNW 3.5 mph - N/A   Unknown
10:35 AM 67.8 °F 61.2 °F 79% 30.15 in 10.0 mi North 6.9 mph - N/A   Unknown
10:55 AM 68.0 °F 60.6 °F 77% 30.15 in 10.0 mi NNW 5.8 mph - N/A   Unknown
11:15 AM 68.2 °F 59.9 °F 75% 30.15 in 10.0 mi NNE 5.8 mph - N/A   Unknown
11:35 AM 68.5 °F 59.4 °F 72% 30.15 in 10.0 mi North 4.6 mph - N/A   Unknown
11:55 AM 68.5 °F 59.0 °F 72% 30.14 in 10.0 mi North 5.8 mph - N/A   Unknown
12:15 PM 69.4 °F 59.4 °F 70% 30.15 in 10.0 mi North 5.8 mph - N/A   Unknown
12:35 PM 70.0 °F 58.8 °F 68% 30.14 in 10.0 mi North 4.6 mph - N/A   Unknown
12:55 PM 71.2 °F 59.2 °F 66% 30.13 in 10.0 mi Calm Calm - N/A   Unknown
1:15 PM 72.0 °F 59.2 °F 64% 30.13 in 10.0 mi North 5.8 mph - N/A   Unknown
1:35 PM 71.6 °F 59.2 °F 65% 30.13 in 10.0 mi North 4.6 mph - N/A   Unknown
1:55 PM 72.7 °F 59.5 °F 63% 30.12 in 10.0 mi North 3.5 mph - N/A   Unknown
2:15 PM 73.2 °F 59.4 °F 62% 30.10 in 10.0 mi Calm Calm - N/A   Unknown
2:35 PM 74.5 °F 59.2 °F 59% 30.10 in 10.0 mi NNE 3.5 mph - N/A   Unknown
2:55 PM 74.7 °F 59.2 °F 58% 30.10 in 10.0 mi North 4.6 mph - N/A   Unknown
3:15 PM 75.4 °F 59.5 °F 58% 30.10 in 10.0 mi NW 3.5 mph - N/A   Unknown
3:35 PM 75.9 °F 58.5 °F 55% 30.09 in 10.0 mi Calm Calm - N/A   Unknown
3:55 PM 76.3 °F 58.5 °F 54% 30.08 in 10.0 mi Calm Calm - N/A   Unknown
4:15 PM 77.0 °F 58.8 °F 53% 30.09 in 10.0 mi NNW 3.5 mph - N/A   Unknown
4:35 PM 77.4 °F 58.6 °F 52% 30.09 in 10.0 mi Calm Calm - N/A   Unknown
4:55 PM 79.2 °F 58.8 °F 50% 30.08 in 10.0 mi Calm Calm - N/A   Unknown
5:15 PM 78.8 °F 58.6 °F 50% 30.07 in 10.0 mi Calm Calm - N/A   Unknown
5:35 PM 78.4 °F 58.8 °F 51% 30.07 in 10.0 mi Calm Calm - N/A   Unknown
5:55 PM 78.1 °F 58.5 °F 51% 30.07 in 10.0 mi Calm Calm - N/A   Unknown
6:15 PM 77.9 °F 58.1 °F 50% 30.07 in 10.0 mi Calm Calm - N/A   Unknown
6:35 PM 77.5 °F 57.7 °F 50% 30.08 in 10.0 mi Calm Calm - N/A   Unknown
6:55 PM 75.9 °F 60.3 °F 58% 30.08 in 10.0 mi Calm Calm - N/A   Unknown
7:15 PM 74.5 °F 61.2 °F 63% 30.08 in 10.0 mi Calm Calm - N/A   Unknown
7:35 PM 73.4 °F 62.1 °F 68% 30.08 in 10.0 mi Calm Calm - N/A   Unknown
7:55 PM 72.5 °F 62.4 °F 71% 30.08 in 10.0 mi WSW 3.5 mph - N/A   Unknown
8:15 PM 72.5 °F 62.4 °F 71% 30.08 in 10.0 mi Calm Calm - N/A   Unknown
8:35 PM 71.6 °F 63.1 °F 75% 30.10 in 10.0 mi Calm Calm - N/A   Unknown
8:55 PM 71.4 °F 62.1 °F 72% 30.10 in 10.0 mi Calm Calm - N/A   Unknown
9:15 PM 71.1 °F 63.1 °F 76% 30.10 in 10.0 mi Calm Calm - N/A   Unknown
9:35 PM 70.3 °F 63.7 °F 79% 30.10 in 10.0 mi WNW 3.5 mph - N/A   Unknown
9:55 PM 70.9 °F 64.9 °F 81% 30.11 in 10.0 mi Calm Calm - N/A   Unknown
10:15 PM 71.2 °F 63.7 °F 77% 30.11 in 10.0 mi Calm Calm - N/A   Unknown
10:35 PM 71.6 °F 62.1 °F 72% 30.11 in 10.0 mi Calm Calm - N/A   Unknown
10:55 PM 71.1 °F 62.1 °F 73% 30.11 in 10.0 mi Calm Calm - N/A   Unknown
11:15 PM 71.6 °F 61.7 °F 71% 30.12 in 10.0 mi WSW 3.5 mph - N/A   Unknown
11:35 PM 71.2 °F 62.1 °F 73% 30.12 in 10.0 mi West 3.5 mph - N/A   Unknown
11:55 PM 69.8 °F 63.1 °F 79% 30.12 in 10.0 mi SW 3.5 mph - N/A Rain Rain